| time (UTC) | temp F | wind direction | speed knots | gust knots | rain 1hr in | rain 24hr in | rain mn in | humidity % | barometer mb |
| 20260904092427 | 78 | 0 | 0.0 | 0.0 | 0.00 | 0.00 | 0.00 | 89 | 992.6 |
| 20260904090925 | 78 | 0 | 0.0 | 0.0 | 0.00 | 0.00 | 0.00 | 89 | 992.6 |
| 20260904090122 | 78 | 0 | 0.0 | 0.0 | 0.00 | 0.00 | 0.00 | 88 | 992.4 |
| 20260904083926 | 78 | 0 | 0.0 | 0.0 | 0.00 | 0.00 | 0.00 | 88 | 992.2 |
| 20260904082431 | 78 | 0 | 0.0 | 0.0 | 0.00 | 0.00 | 0.00 | 88 | 992.0 |
| 20260904080925 | 78 | 0 | 0.0 | 0.0 | 0.00 | 0.00 | 0.00 | 88 | 992.0 |
| 20260904075426 | 78 | 0 | 0.0 | 0.0 | 0.00 | 0.00 | 0.00 | 88 | 992.2 |
| 20260904073925 | 78 | 0 | 0.0 | 0.0 | 0.00 | 0.00 | 0.00 | 88 | 992.1 |
| 20260904072426 | 79 | 0 | 0.0 | 0.0 | 0.00 | 0.00 | 0.00 | 87 | 992.0 |
| 20260904070924 | 79 | 0 | 0.0 | 0.0 | 0.00 | 0.00 | 0.00 | 87 | 992.1 |
| 20260904070112 | 79 | 0 | 0.0 | 0.0 | 0.00 | 0.00 | 0.00 | 86 | 992.3 |
| 20260904063922 | 80 | 0 | 0.0 | 0.0 | 0.00 | 0.00 | 0.00 | 86 | 992.5 |
| 20260904062421 | 80 | 0 | 0.0 | 0.0 | 0.00 | 0.00 | 0.00 | 85 | 992.8 |
| 20260904060919 | 80 | 0 | 0.0 | 0.0 | 0.00 | 0.00 | 0.00 | 85 | 993.0 |
| 20260904055419 | 81 | 0 | 0.0 | 0.0 | 0.00 | 0.00 | 0.00 | 85 | 993.2 |
| 20260904053919 | 81 | 0 | 0.0 | 0.0 | 0.00 | 0.00 | 0.00 | 84 | 993.4 |
| 20260904052417 | 81 | 0 | 0.0 | 0.0 | 0.00 | 0.00 | 0.00 | 84 | 993.6 |
| 20260904050913 | 81 | 0 | 0.0 | 0.0 | 0.00 | 0.00 | 0.00 | 83 | 993.7 |
| 20260904045411 | 82 | 0 | 0.0 | 0.0 | 0.00 | 0.00 | 0.00 | 83 | 993.6 |
| 20260904043917 | 82 | 0 | 0.0 | 0.0 | 0.00 | 0.00 | 0.00 | 83 | 993.6 |
| 20260904042410 | 82 | 0 | 0.0 | 0.0 | 0.00 | 0.00 | 0.00 | 82 | 993.5 |
| 20260904040909 | 83 | 0 | 0.0 | 0.0 | 0.00 | 0.00 | 0.00 | 81 | 993.4 |
| 20260904040058 | 83 | 0 | 0.0 | 0.0 | 0.00 | 0.00 | 0.00 | 81 | 993.2 |
| 20260904034604 | 84 | 0 | 0.0 | 0.0 | 0.00 | 0.00 | 0.00 | 80 | 993.2 |
| 20260904032406 | 84 | 0 | 0.0 | 0.0 | 0.00 | 0.00 | 0.00 | 80 | 993.3 |
| 20260904031553 | 84 | 0 | 0.0 | 0.0 | 0.00 | 0.00 | 0.00 | 79 | 993.3 |
| 20260904025405 | 84 | 0 | 0.0 | 0.0 | 0.00 | 0.00 | 0.00 | 79 | 993.4 |
| 20260904023902 | 85 | 0 | 0.0 | 0.0 | 0.00 | 0.00 | 0.00 | 79 | 993.5 |
| 20260904022402 | 85 | 0 | 0.0 | 0.0 | 0.00 | 0.00 | 0.00 | 79 | 993.6 |
| 20260904020900 | 85 | 0 | 0.0 | 0.0 | 0.00 | 0.00 | 0.00 | 78 | 993.6 |
| 20260904020053 | 86 | 0 | 0.0 | 0.0 | 0.00 | 0.00 | 0.00 | 77 | 993.6 |
| 20260904013856 | 86 | 0 | 0.0 | 0.0 | 0.00 | 0.00 | 0.00 | 77 | 993.4 |
| 20260904012354 | 86 | 0 | 0.0 | 0.0 | 0.00 | 0.00 | 0.00 | 78 | 993.3 |
| 20260904010859 | 86 | 0 | 0.0 | 0.0 | 0.00 | 0.00 | 0.00 | 77 | 993.0 |
| 20260904005354 | 86 | 0 | 0.0 | 0.0 | 0.00 | 0.00 | 0.00 | 76 | 992.7 |
| 20260904003848 | 87 | 0 | 0.0 | 0.0 | 0.00 | 0.00 | 0.00 | 75 | 992.4 |
| 20260904002348 | 88 | 0 | 0.0 | 0.0 | 0.00 | 0.00 | 0.00 | 73 | 992.2 |
| 20260904000907 | 89 | 0 | 0.0 | 0.0 | 0.00 | 0.00 | 0.00 | 73 | 991.9 |
| 20260904000040 | 89 | 0 | 0.0 | 0.0 | 0.00 | 0.00 | 0.00 | 73 | 991.7 |
| 20260903233846 | 90 | 0 | 0.0 | 0.0 | 0.00 | 0.00 | 0.00 | 72 | 991.6 |
| 20260903232346 | 90 | 0 | 0.0 | 0.0 | 0.00 | 0.00 | 0.00 | 73 | 991.7 |
| 20260903230845 | 91 | 0 | 0.0 | 0.0 | 0.00 | 0.00 | 0.00 | 73 | 991.7 |
| 20260903225342 | 91 | 0 | 0.0 | 0.0 | 0.00 | 0.00 | 0.00 | 72 | 991.7 |
| 20260903223842 | 91 | 0 | 0.0 | 0.0 | 0.00 | 0.00 | 0.00 | 70 | 991.7 |
| 20260903222342 | 92 | 0 | 0.0 | 0.0 | 0.00 | 0.00 | 0.00 | 69 | 991.5 |
| 20260903220841 | 92 | 0 | 0.0 | 0.0 | 0.00 | 0.00 | 0.00 | 66 | 991.6 |
| 20260903215342 | 93 | 0 | 0.0 | 0.0 | 0.00 | 0.00 | 0.00 | 65 | 991.7 |
| 20260903213839 | 94 | 0 | 0.0 | 0.0 | 0.00 | 0.00 | 0.00 | 65 | 991.8 |
| 20260903212339 | 94 | 0 | 0.0 | 0.0 | 0.00 | 0.00 | 0.00 | 63 | 991.9 |
| 20260903210839 | 94 | 0 | 0.0 | 0.0 | 0.00 | 0.00 | 0.00 | 60 | 991.9 |
| 20260903205338 | 95 | 0 | 0.0 | 0.0 | 0.00 | 0.00 | 0.00 | 60 | 991.9 |
| 20260903203839 | 95 | 0 | 0.0 | 0.0 | 0.00 | 0.00 | 0.00 | 56 | 992.0 |
| 20260903202338 | 95 | 0 | 0.0 | 0.0 | 0.00 | 0.00 | 0.00 | 57 | 992.2 |
| 20260903200835 | 95 | 0 | 0.0 | 0.0 | 0.00 | 0.00 | 0.00 | 51 | 992.4 |
| 20260903200030 | 96 | 0 | 0.0 | 0.0 | 0.00 | 0.00 | 0.00 | 54 | 992.6 |
| 20260903193835 | 96 | 0 | 0.0 | 0.0 | 0.00 | 0.00 | 0.00 | 51 | 992.7 |
| 20260903193034 | 96 | 0 | 0.0 | 0.0 | 0.00 | 0.00 | 0.00 | 50 | 992.9 |
| 20260903190835 | 98 | 0 | 0.0 | 0.0 | 0.00 | 0.00 | 0.00 | 49 | 993.0 |
| 20260903185335 | 100 | 0 | 0.0 | 0.0 | 0.00 | 0.00 | 0.00 | 49 | 993.1 |
| 20260903183835 | 101 | 0 | 0.0 | 0.0 | 0.00 | 0.00 | 0.00 | 42 | 993.3 |
| 20260903182331 | 99 | 0 | 0.0 | 0.0 | 0.00 | 0.00 | 0.00 | 44 | 993.4 |
| 20260903181518 | 99 | 0 | 0.0 | 0.0 | 0.00 | 0.00 | 0.00 | 48 | 993.5 |
| 20260903175329 | 99 | 0 | 0.0 | 0.0 | 0.00 | 0.00 | 0.00 | 46 | 993.7 |
| 20260903173829 | 100 | 0 | 0.0 | 0.0 | 0.00 | 0.00 | 0.00 | 49 | 993.7 |
| 20260903172328 | 99 | 0 | 0.0 | 0.0 | 0.00 | 0.00 | 0.00 | 47 | 994.0 |
| 20260903170826 | 100 | 0 | 0.0 | 0.0 | 0.00 | 0.00 | 0.00 | 52 | 994.0 |
| 20260903170010 | 99 | 0 | 0.0 | 0.0 | 0.00 | 0.00 | 0.00 | 52 | 994.3 |
| 20260903163820 | 98 | 0 | 0.0 | 0.0 | 0.00 | 0.00 | 0.00 | 58 | 994.3 |
| 20260903162319 | 96 | 0 | 0.0 | 0.0 | 0.00 | 0.00 | 0.00 | 57 | 994.4 |
| 20260903162231 | 97 | 0 | 0.0 | 0.0 | 0.00 | 0.00 | 0.00 | 58 | 994.6 |
| 20260903155319 | 95 | 0 | 0.0 | 0.0 | 0.00 | 0.00 | 0.00 | 58 | 994.7 |
| 20260903153817 | 94 | 0 | 0.0 | 0.0 | 0.00 | 0.00 | 0.00 | 64 | 994.8 |
| 20260903152316 | 93 | 0 | 0.0 | 0.0 | 0.00 | 0.00 | 0.00 | 66 | 994.8 |
| 20260903150812 | 92 | 0 | 0.0 | 0.0 | 0.00 | 0.00 | 0.00 | 71 | 994.8 |
| 20260903145313 | 90 | 0 | 0.0 | 0.0 | 0.00 | 0.00 | 0.00 | 73 | 994.8 |
| 20260903143812 | 89 | 0 | 0.0 | 0.0 | 0.00 | 0.00 | 0.00 | 75 | 994.8 |
| 20260903142310 | 87 | 0 | 0.0 | 0.0 | 0.00 | 0.00 | 0.00 | 80 | 994.8 |
| 20260903140807 | 85 | 0 | 0.0 | 0.0 | 0.00 | 0.00 | 0.00 | 83 | 994.8 |
| 20260903135306 | 82 | 0 | 0.0 | 0.0 | 0.00 | 0.00 | 0.00 | 90 | 994.7 |
| 20260903133807 | 79 | 0 | 0.0 | 0.0 | 0.00 | 0.00 | 0.00 | 93 | 994.6 |
| 20260903132952 | 78 | 0 | 0.0 | 0.0 | 0.00 | 0.00 | 0.00 | 93 | 994.6 |
| 20260903130804 | 77 | 0 | 0.0 | 0.0 | 0.00 | 0.00 | 0.00 | 94 | 994.6 |
| 20260903125305 | 77 | 0 | 0.0 | 0.0 | 0.00 | 0.00 | 0.00 | 94 | 994.7 |
| 20260903123802 | 76 | 0 | 0.0 | 0.0 | 0.00 | 0.00 | 0.00 | 93 | 994.7 |
| 20260903122305 | 76 | 0 | 0.0 | 0.0 | 0.00 | 0.00 | 0.00 | 94 | 994.7 |
| 20260903120800 | 76 | 0 | 0.0 | 0.0 | 0.00 | 0.00 | 0.00 | 93 | 994.7 |
| 20260903115300 | 75 | 0 | 0.0 | 0.0 | 0.00 | 0.00 | 0.00 | 93 | 994.7 |
| 20260903114500 | 75 | 0 | 0.0 | 0.0 | 0.00 | 0.00 | 0.00 | 93 | 994.6 |
| 20260903112301 | 75 | 0 | 0.0 | 0.0 | 0.00 | 0.00 | 0.00 | 93 | 994.4 |
| 20260903110758 | 75 | 0 | 0.0 | 0.0 | 0.00 | 0.00 | 0.00 | 93 | 994.3 |
| 20260903105258 | 75 | 0 | 0.0 | 0.0 | 0.00 | 0.00 | 0.00 | 92 | 994.0 |
| 20260903103759 | 75 | 0 | 0.0 | 0.0 | 0.00 | 0.00 | 0.00 | 92 | 993.9 |
| 20260903102258 | 75 | 0 | 0.0 | 0.0 | 0.00 | 0.00 | 0.00 | 92 | 993.8 |
| 20260903100756 | 75 | 0 | 0.0 | 0.0 | 0.00 | 0.00 | 0.00 | 92 | 993.7 |
| 20260903095254 | 76 | 0 | 0.0 | 0.0 | 0.00 | 0.00 | 0.00 | 91 | 993.7 |